{"data":{"norad_id":61202,"intl_designator":"2024-171C","name":"STARLINK-11309 [DTC]","alt_names":[],"object_type":"PAYLOAD","status":"ACTIVE","operator":null,"country":"US","launch_date":"2024-09-20","launch_site_code":"AFWTR","launch_vehicle":null,"mission":null,"orbit_class":"UNKNOWN","rcs_meters":null,"size_class":null,"mass_kg":null,"dimensions":null,"purposes":["comms"],"wikipedia_slug":null,"has_3d_model":false,"image_url":null,"decayed_at":null,"tle_current":{"epoch":"2026-05-25T01:36:37.229184Z","epoch_age_seconds":63101,"freshness":"FRESH","line1":"1 61202U 24171C   26145.06709756  .00002622  00000+0  26460-4 0  9997","line2":"2 61202  53.1576 159.8191 0000290  40.2067 319.8972 15.69735332 96394","mean_motion":15.69735332,"eccentricity":2.9e-5,"inclination_deg":53.1576,"raan_deg":159.8191,"arg_perigee_deg":40.2067,"mean_anomaly_deg":319.8972,"bstar":2.646e-5,"rev_number":9639,"period_min":91.735209792679,"perigee_km":359.45886496065,"apogee_km":359.84965685378,"semimajor_km":6737.7912609072,"source":"CELESTRAK","updated_at":"2026-05-25T13:38:19.358627Z"}}}